パンスターズ彗星

253P/PanSTARRS (2011)

English version
Home page
Updated on December 7, 2011

---------------------------------------------------------------------

・ プロフィール

符号 253P/2011 R2
発見日 2011年9月4日
発見光度 18.7等
発見者 Pan-STARRS 1 telescope (Haleakala)

・ 写真集

・ 軌道要素

Epoch 2011 Nov. 15.0 TT = JDT 2455880.5
T 2011 Nov. 24.11298 TT                                 MPC
q   2.0394633            (2000.0)            P               Q
n   0.15229261     Peri.  230.99856     +0.94983581     -0.30920158
a   3.4728297      Node   146.93577     +0.30691248     +0.89265760
e   0.4127373      Incl.    4.93897     +0.06013864     +0.32795853
P   6.47
From 255 observations 1998 Sept. 14-2011 Oct. 31, mean residual 0".5.

・ 光度変化

        m1 = 12.0 + 5 logΔ + 15.0 log r

---------------------------------------------------------------------

軌道要素はM.P.E.C. 2011-V31に掲載されたものです。
光度グラフはComet for Windowsで作成したものです。

---------------------------------------------------------------------

Copyright(C) Seiichi Yoshida (comet@aerith.net). All rights reserved.